FW8739 Weather Reports


time (UTC)temp
C
wind
direction
speed
KPH
gust
KPH
rain 1hr
cm
rain 24hr
cm
rain mn
cm
humidity
%
barometer
mb
20260505054406 16 185 0.0 0.0 0.00 0.00 0.00 85 1007.9
20260505053904 16 190 0.0 0.0 0.00 0.00 0.00 83 1007.9
20260505053401 16 186 0.0 0.0 0.00 0.00 0.00 85 1007.9
20260505052858 16 186 0.0 0.0 0.00 0.00 0.00 84 1008.1
20260505052355 16 198 0.0 0.0 0.00 0.00 0.00 83 1008.1
20260505051852 16 180 0.0 0.0 0.00 0.00 0.00 83 1008.0
20260505051349 16 185 0.0 0.0 0.00 0.00 0.00 82 1008.1
20260505050847 17 189 0.0 0.0 0.00 0.00 0.00 81 1008.2
20260505050345 17 169 0.0 0.0 0.00 0.00 0.00 79 1008.0
20260505041313 18 177 0.0 0.0 0.00 0.00 0.00 76 1008.7
20260505040810 18 136 1.6 1.6 0.00 0.00 0.00 74 1008.6
20260505040307 18 170 0.0 0.0 0.00 0.00 0.00 74 1008.6
20260505035804 18 197 0.0 0.0 0.00 0.00 0.00 75 1008.6
20260505035259 19 192 0.0 0.0 0.00 0.00 0.00 72 1008.6
20260505034757 18 183 0.0 0.0 0.00 0.00 0.00 72 1008.7
20260505034254 19 163 0.0 1.6 0.00 0.00 0.00 71 1008.6
20260505033750 18 156 1.6 1.6 0.00 0.00 0.00 70 1008.7
20260505033248 19 87 1.6 3.2 0.00 0.00 0.00 72 1008.6
20260505032746 19 143 0.0 1.6 0.00 0.00 0.00 71 1008.7
20260505032241 19 186 0.0 0.0 0.00 0.00 0.00 71 1008.6
20260505031739 19 209 0.0 0.0 0.00 0.00 0.00 72 1008.6
20260505031235 18 175 0.0 0.0 0.00 0.00 0.00 71 1008.5
20260505030732 19 151 0.0 0.0 0.00 0.00 0.00 71 1008.2
20260505030228 18 157 0.0 0.0 0.00 0.00 0.00 70 1008.5
20260505025724 18 188 1.6 1.6 0.00 0.00 0.00 70 1008.2
20260505025223 19 174 0.0 0.0 0.00 0.00 0.00 72 1008.2
20260505024720 19 131 0.0 0.0 0.00 0.00 0.00 71 1008.1
20260505024217 19 188 0.0 0.0 0.00 0.00 0.00 72 1008.0
20260505023715 18 140 0.0 0.0 0.00 0.00 0.00 71 1008.0
20260505023212 18 149 0.0 0.0 0.00 0.00 0.00 72 1007.9
20260505022709 19 188 0.0 0.0 0.00 0.00 0.00 71 1007.6
20260505022206 20 150 0.0 0.0 0.00 0.00 0.00 68 1007.6
20260505021703 20 162 0.0 0.0 0.00 0.00 0.00 68 1007.3
20260505021200 21 184 0.0 0.0 0.00 0.00 0.00 66 1007.3
20260505020655 20 150 1.6 1.6 0.00 0.00 0.00 65 1007.3
20260505020151 20 189 1.6 1.6 0.00 0.00 0.00 66 1007.3
20260505015649 20 61 1.6 3.2 0.00 0.00 0.00 65 1007.3
20260505015145 20 170 0.0 1.6 0.00 0.00 0.00 66 1007.3
20260505014642 20 194 3.2 3.2 0.00 0.00 0.00 66 1007.1
20260505014139 20 166 0.0 0.0 0.00 0.00 0.00 68 1007.0
20260505013636 20 185 0.0 0.0 0.00 0.00 0.00 68 1007.1
20260505013133 21 208 1.6 3.2 0.00 0.00 0.00 64 1007.2
20260505012632 20 187 0.0 0.0 0.00 0.00 0.00 67 1007.1
20260505012128 21 173 0.0 0.0 0.00 0.00 0.00 67 1007.2
20260505011624 21 199 0.0 0.0 0.00 0.00 0.00 64 1007.1
20260505011121 22 147 0.0 0.0 0.00 0.00 0.00 62 1007.1
20260505010617 21 160 0.0 0.0 0.00 0.00 0.00 62 1007.1
20260505010114 21 174 0.0 0.0 0.00 0.00 0.00 64 1006.9
20260505005610 22 175 0.0 0.0 0.00 0.00 0.00 61 1007.0
20260505005107 22 72 1.6 3.2 0.00 0.00 0.00 60 1006.7
20260505004604 22 194 0.0 0.0 0.00 0.00 0.00 60 1006.8
20260505004101 22 174 0.0 1.6 0.00 0.00 0.00 57 1006.9
20260505003558 23 177 0.0 0.0 0.00 0.00 0.00 59 1006.7
20260505003055 23 189 0.0 0.0 0.00 0.00 0.00 58 1006.7
20260505002550 23 230 0.0 0.0 0.00 0.00 0.00 57 1006.8
20260505002049 23 175 0.0 0.0 0.00 0.00 0.00 60 1006.7
20260505001546 23 185 0.0 0.0 0.00 0.00 0.00 54 1006.7
20260505001043 24 136 1.6 3.2 0.00 0.00 0.00 53 1007.0
20260505000541 24 183 1.6 1.6 0.00 0.00 0.00 55 1006.7
20260505000038 24 183 0.0 1.6 0.00 0.00 0.00 54 1006.7
20260504235535 25 172 1.6 1.6 0.00 0.00 0.00 54 1006.6
20260504235031 25 180 1.6 1.6 0.00 0.00 0.00 53 1006.6
20260504234528 25 194 1.6 1.6 0.00 0.00 0.00 56 1006.7
20260504234025 26 100 3.2 3.2 0.00 0.00 0.00 52 1006.5
20260504233520 26 230 0.0 1.6 0.00 0.00 0.00 49 1006.8
20260504233018 26 179 1.6 3.2 0.00 0.00 0.00 51 1006.8
20260504232514 26 189 0.0 1.6 0.00 0.00 0.00 50 1006.9
20260504232012 25 126 1.6 1.6 0.00 0.00 0.00 51 1006.7
20260504231509 25 220 3.2 3.2 0.00 0.00 0.00 54 1006.9
20260504231005 25 188 3.2 3.2 0.00 0.00 0.00 50 1006.9
20260504230501 26 156 3.2 3.2 0.00 0.00 0.00 52 1006.8
20260504230000 26 165 0.0 1.6 0.00 0.00 0.00 55 1006.7
20260504225457 26 160 1.6 1.6 0.00 0.00 0.00 51 1006.8
20260504224954 26 201 3.2 4.8 0.00 0.00 0.00 50 1006.7
20260504224450 26 128 4.8 8.0 0.00 0.00 0.00 50 1006.2
20260504223947 26 180 0.0 1.6 0.00 0.00 0.00 51 1006.7
20260504223444 26 184 0.0 0.0 0.00 0.00 0.00 51 1006.5
20260504222939 26 33 3.2 8.0 0.00 0.00 0.00 51 1006.6
20260504222437 26 141 0.0 3.2 0.00 0.00 0.00 52 1006.7
20260504221935 26 171 3.2 8.0 0.00 0.00 0.00 50 1006.6
20260504221431 26 234 0.0 1.6 0.00 0.00 0.00 51 1006.7
20260504220928 26 173 3.2 3.2 0.00 0.00 0.00 50 1006.6
20260504220425 26 170 3.2 4.8 0.00 0.00 0.00 49 1006.5
20260504215922 26 166 4.8 4.8 0.00 0.00 0.00 48 1006.6
20260504215419 26 201 3.2 3.2 0.00 0.00 0.00 51 1006.6
20260504214915 26 202 3.2 3.2 0.00 0.00 0.00 48 1006.8
20260504214412 27 187 1.6 3.2 0.00 0.00 0.00 50 1006.8
20260504213909 27 15 3.2 3.2 0.00 0.00 0.00 50 1006.9
20260504213404 26 192 4.8 8.0 0.00 0.00 0.00 48 1006.9
20260504212902 27 214 4.8 4.8 0.00 0.00 0.00 46 1006.8
20260504212358 27 7 4.8 4.8 0.00 0.00 0.00 47 1006.8
20260504211856 27 150 0.0 0.0 0.00 0.00 0.00 47 1006.9
20260504211351 27 128 4.8 9.7 0.00 0.00 0.00 45 1007.0
20260504210849 28 108 3.2 3.2 0.00 0.00 0.00 45 1007.0
20260504210346 28 192 3.2 3.2 0.00 0.00 0.00 47 1007.3
20260504205843 28 253 1.6 1.6 0.00 0.00 0.00 49 1007.4
20260504205341 28 197 1.6 3.2 0.00 0.00 0.00 49 1007.3
20260504204839 28 35 4.8 9.7 0.00 0.00 0.00 46 1007.3
20260504204337 28 148 0.0 1.6 0.00 0.00 0.00 47 1007.4
20260504203836 28 216 3.2 4.8 0.00 0.00 0.00 51 1007.5
20260504203333 28 38 4.8 8.0 0.00 0.00 0.00 45 1007.4
20260504202828 28 192 1.6 3.2 0.00 0.00 0.00 47 1007.5
20260504202326 27 191 1.6 1.6 0.00 0.00 0.00 49 1007.7
20260504201822 27 277 4.8 8.0 0.00 0.00 0.00 47 1007.8
20260504201320 27 171 1.6 3.2 0.00 0.00 0.00 46 1008.0
20260504200817 27 248 4.8 4.8 0.00 0.00 0.00 50 1007.9
20260504200314 27 181 0.0 0.0 0.00 0.00 0.00 48 1008.0
20260504195810 27 72 3.2 4.8 0.00 0.00 0.00 49 1008.2
20260504195306 27 137 0.0 1.6 0.00 0.00 0.00 48 1008.1
20260504194803 27 125 3.2 3.2 0.00 0.00 0.00 45 1008.2
20260504194259 28 215 3.2 3.2 0.00 0.00 0.00 49 1008.2
20260504193755 28 191 0.0 1.6 0.00 0.00 0.00 53 1008.2
20260504193252 27 222 3.2 3.2 0.00 0.00 0.00 46 1008.3
20260504192751 28 222 1.6 3.2 0.00 0.00 0.00 48 1008.4
20260504192248 28 229 4.8 8.0 0.00 0.00 0.00 52 1008.5
20260504191747 28 280 9.7 17.7 0.00 0.00 0.00 45 1008.4
20260504191243 28 189 3.2 3.2 0.00 0.00 0.00 45 1008.4
20260504190739 27 114 0.0 1.6 0.00 0.00 0.00 49 1008.4
20260504190236 27 184 1.6 3.2 0.00 0.00 0.00 49 1008.6
20260504185732 27 104 1.6 1.6 0.00 0.00 0.00 48 1008.5
20260504185229 27 190 3.2 4.8 0.00 0.00 0.00 47 1008.5
20260504184725 27 72 3.2 4.8 0.00 0.00 0.00 46 1008.5
20260504184221 27 294 4.8 8.0 0.00 0.00 0.00 52 1008.3
20260504183717 27 256 3.2 4.8 0.00 0.00 0.00 50 1008.5
20260504183214 27 141 3.2 3.2 0.00 0.00 0.00 49 1008.4
20260504182713 27 78 4.8 8.0 0.00 0.00 0.00 46 1008.4
20260504182209 27 213 6.4 11.3 0.00 0.00 0.00 46 1008.5
20260504181707 27 50 6.4 11.3 0.00 0.00 0.00 48 1008.4
20260504181204 26 197 6.4 8.0 0.00 0.00 0.00 49 1008.7
20260504180703 26 281 1.6 3.2 0.00 0.00 0.00 47 1008.6
20260504180201 27 193 8.0 12.9 0.00 0.00 0.00 49 1008.6
20260504175658 26 138 6.4 9.7 0.00 0.00 0.00 47 1008.8
20260504175155 26 136 1.6 3.2 0.00 0.00 0.00 51 1008.7
20260504174653 26 358 11.3 14.5 0.00 0.00 0.00 50 1008.9
20260504174150 26 187 1.6 1.6 0.00 0.00 0.00 48 1009.0
20260504173647 27 234 6.4 11.3 0.00 0.00 0.00 49 1009.0
20260504173144 26 203 1.6 3.2 0.00 0.00 0.00 50 1009.0
20260504172641 26 281 8.0 11.3 0.00 0.00 0.00 48 1009.0
20260504172137 26 218 4.8 8.0 0.00 0.00 0.00 48 1009.1
20260504171633 26 227 3.2 4.8 0.00 0.00 0.00 47 1009.3
20260504171131 26 207 9.7 11.3 0.00 0.00 0.00 47 1009.1
20260504170627 25 183 1.6 3.2 0.00 0.00 0.00 50 1009.4
20260504170125 26 7 6.4 9.7 0.00 0.00 0.00 49 1009.3
20260504151010 22 147 8.0 11.3 0.00 0.00 0.00 54 1010.2
20260504150508 22 188 1.6 1.6 0.00 0.00 0.00 55 1010.4
20260504140933 20 88 0.0 1.6 0.00 0.00 0.00 65 1010.8
20260504140430 20 176 0.0 1.6 0.00 0.00 0.00 66 1011.2
20260504130355 12 186 0.0 0.0 0.00 0.00 0.00 99 1011.3
20260504120318 9 187 0.0 0.0 0.00 0.00 0.00 99 1011.2
20260504110242 8 187 0.0 0.0 0.00 0.00 0.00 99 1010.9
20260504100205 8 185 0.0 0.0 0.00 0.00 0.00 99 1011.2
20260504090128 10 188 0.0 0.0 0.00 0.00 0.00 99 1011.5
20260504081558 11 187 0.0 0.0 0.00 0.00 0.00 98 1011.3
20260504081054 11 186 0.0 0.0 0.00 0.00 0.00 98 1011.3
20260504080551 11 186 0.0 0.0 0.00 0.00 0.00 97 1011.3